Погода в Чибирлее

Россия / Пензенская область     52°58′49″N   46°37′17″E
темп.,
°C
ветер,
м/с
пор.,
м/с
влажн.,
%
обл.,
%
осадки,
мм/ч
давл.,
гПа
погр.,
м
11 апреля, вс
вс1100:00+3с3799100 0.0 1023186
03:00+4ссв4999100 0.1 1023266
06:00+3ссв4998100 0.0 1025299
09:00+5ссв4897100 0.0 1026265
12:00+8св4693100 0.0 1027325
15:00+9св5891100 0.0 1027349
18:00+7св5995100 0.0 1029236
21:00+7всв51293100 0.0 1029241
12 апреля, пн
пн1200:00+6всв51293100 0.0 1029222
03:00+6всв4109389 0.0 1030173
06:00+6всв499483 0.0 1031173
09:00+12в597446 0.0 1031333
12:00+17вюв575349 0.0 1031717
15:00+18вюв564980 0.0 10311009
18:00+14вюв3869100 0.0 1031174
21:00+11вюв3978100 0.0 1032164
13 апреля, вт
вт1300:00+9вюв357975 0.0 103270
03:00+8вюв338079 0.0 103239
06:00+7вюв357764 0.0 103282
09:00+12юв485399 0.0 1032393
12:00+16юв56385 0.0 1031975
15:00+17ююв56365 0.0 10301147
18:00+14юв355375 0.0 102974
21:00+10юв356498 0.0 103065
14 апреля, ср
ср1400:00+8юв367192 0.0 102988
03:00+7юв347589 0.0 102947
06:00+7вюв347457 0.0 102863
09:00+13юв47475 0.0 1027472
12:00+16юв56351 0.0 10261020
15:00+17юв56325 0.0 10241146
18:00+14вюв35505 0.0 102383
21:00+10вюв34615 0.0 102448
15 апреля, чт
чт1500:00+8вюв22665 0.0 102324
03:00+7вюв33755 0.0 102239
06:00+7вюв24852 0.0 102162
09:00+14юв35645 0.0 1020501
12:00+17юв45500 0.0 10181300
15:00+18ююв44451 0.0 10161710
18:00+15ююв22605 0.0 101538
21:00+11юв227378 0.0 101516